EHI
0 0 0 0 0 0 0 0 0 0 0 0 0 0 0 0 0 0 0 0 0 0 0 0 0 0 0 0 0 0 0 0 0 0 0 0 0 0 0 0 0 0 0 0
0 0 0 0 0 0 0 0 0 0 0 0 0 0 0 0 0 0 0 0 0 0 0 0 0 0 0 0 0 0 0 0 0 0 0 0 0 0 0 0 0 0 0 0
0 0 0 0 0 0 0 0 0 0 0 0 0 0 0 0 0 0 0 0 0 0 0 0 0 0 0 0 0 0 0 0 0 0 0 0 0 0 0 0 0 0 0 0
0 0 0 0 0 0 0 0 0 0 0 0 0 0 0 0 0 0 0 0 0 0 0 0 0 0 0 0 0 0 0 0 0 0 0 0 0 0 0 0 0 0 0 0
0 0 0 0 0 0 0 0 0 0 0 0 0 0 0 0 0 0 0 0 0 0 0 0 0 0 0 0 0 0 0 0 0 0 0 0 0 0 0 0 0 0 0 0
0 0 0 0 0 0 0 0 0 0 0 0 0 0 0 0 0 0 0 0 0 0 0 0 0 0 0 0 0 0 0 0 0 0 0 0 0 0 0 0 0 0 0 0
0 0 0 0 0 0 0 0 0 0 0 0 0 0 0 0 0 0 0 0 0 0 0 0 0 0 0 0 0 0 0 0 0 0 0 0 0 0 0 0 0 0 0 0
0 0 0 0 0 0 0 0 0 0 0 0 0 0 0 0 0 0 0 0 0 0 0 0 0 0 0 0 0 0 0 0 0 0 0 0 0 0 0 0 0 0 0 0
0 0 0 0 0 0 0 0 0 0 0 0 0 0 0 0 0 0 0 0 0 0 0 0 0 0 0 0 0 0 0 0 0 0 0 0 0 0 0 0 0 0 0 0
0 0 0 0 0 0 0 0 0 0 0 0 0 0 0 0 0 0 0 0 0 0 0 0 0 0 0 0 0 0 0 0 0 0 0 0 0 0 0 0 0 0 0 0
0 0 0 0 0 0 0 0 0 0 0 0 0 0 0 0 0 0 0 0 0 0 0 0 0 0 0 0 0 0 0 0 0 0 0 0 0 0 0 0 0 0 0 0
0 0 0 0 0 0 0 0 0 0 0 0 0 0 0 0 0 0 0 0 0 0 0 0 0 0 0 0 0 0 0 0 0 0 0 0 0 0 0 0 0 0 0 0
0 0 0 0 0 0 0 0 0 0 0 0 0 0 0 0 0 0 0 0 0 0 0 0 0 0 0 0 0 0 0 0 0 0 0 0 0 0 0 0 0 0 0 0
0 0 0 0 0 0 0 0 0 0 0 0 0 0 0 0 0 0 0 0 0 0 0 0 0 0 0 0 0 0 0 0 0 0 0 0 0 0 0 0 0 0 0 0
0 0 0 0 0 0 0 0 0 0 0 0 0 0 0 0 0 0 0 0 0 0 0 0 0 0 0 0 0 0 0 0 0 0 0 0 0 0 0 0 0 0 0 0
0 0 0 0 0 0 0 0 0 0 0 0 0 0 0 0 0 0 0 0 0 0 0 0 0 0 0 0 0 0 0 0 0 0 0 0 0 0 0 0 0 0 0 0
0 0 0 0 0 0 0 0 0 0 0 0 0 0 0 0 0 0 0 0 0 0 0 0 0 0 0 0 0 0 0 0 0 0 0 0 0 0 0 0 0 0 0 0
0 0 0 0 0 0 0 0 0 0 0 0 0 0 0 0 0 0 0 0 0 0 0 0 0 0 0 0 0 0 0 0 0 0 0 0 0 0 0 0 0 0 0 0
0 0 0 0 0 0 0 0 0 0 0 0 0 0 0 0 0 0 0 0 0 0 0 0 0 0 0 0 0 0 0 0 0 0 0 0 0 0 0 0 0 0 0 0
0 0 0 0 0 0 0 0 0 0 0 0 0 0 0 0 0 0 0 0 0 0 0 0 0 0 0 0 0 0 0 0 0 0 0 0 0 0 0 0 0 0 0 0
0 0 0 0 0 0 0 0 0 0 0 0 0 0 0 0 0 0 0 0 0 0 0 0 0 0 0 0 0 0 0 0 0 0 0 0 0 0 0 0 0 0 0 0
0 0 0 0 0 0 0 0 0 0 0 0 0 0 0 0 0 0 0 0 0 0 0 0 0 0 0 0 0 0 0 0 0 0 0 0 0 0 0 0 0 0 0 0
0 0 0 0 0 0 0 0 0 0 0 0 0 0 0 0 0 0 0 0 0 0 0 0 0 0 0 0 0 0 0 0 0 0 0 0 0 0 0 0 0 0 0 0
0 0 0 0 0 0 0 0 0 0 0 0 0 0 0 0 0 0 0 0 0 0 0 0 0 0 0 0 0 0 0 0 0 0 0 0 0 0 0 0 0 0 0 0
0 0 0 0 0 0 0 0 0 0 0 0 0 0 0 0 0 0 0 0 0 0 0 0 0 0 0 0 0 0 0 0 0 0 0 0 0 0 0 0 0 0 0 0
0 0 0 0 0 0 0 0 0 0 0 0 0 0 0 0 0 0 0 0 0 0 0 0 0 0 0 0 0 0 0 0 0 0 0 0 0 0 0 0 0 0 0 0
Wind_Speed
16 14 18 23 24 19 17 18 16 14 8 8 14 17 16 14 11 12 9 8 7 7 7 7 7 7 9 10 11 12 12 10 8 7 8 8 8 8 9 9 12 12 11 11
14 20 20 22 23 19 17 17 16 11 5 7 12 17 17 14 10 8 9 11 11 11 10 9 9 9 10 11 12 13 13 12 11 9 9 9 9 9 8 8 10 12 12 11
20 15 18 21 23 22 19 18 15 9 6 7 8 13 10 5 4 4 7 10 11 12 12 11 11 10 10 11 12 11 13 13 13 12 9 8 8 7 7 8 8 10 10 10
20 15 18 22 25 22 19 15 11 8 6 5 2 7 7 7 6 6 9 11 12 12 12 12 11 11 10 11 11 13 14 14 12 11 10 11 9 8 7 6 6 7 9 10
15 15 18 23 25 22 13 11 10 7 7 8 8 9 8 5 8 9 12 13 13 12 12 12 11 11 10 10 10 12 13 13 12 12 11 11 9 7 5 5 6 6 6 8
12 12 14 15 18 16 11 11 6 2 4 9 9 10 7 3 2 4 12 14 14 13 12 12 11 10 10 9 10 10 12 12 11 11 11 11 10 8 7 7 6 5 4 5
11 12 9 12 16 14 13 11 6 6 8 7 4 7 8 1 1 2 12 16 15 14 13 13 13 12 10 10 10 10 12 12 11 11 11 10 9 8 7 6 6 6 5 6
11 12 12 14 14 13 16 13 7 7 8 5 6 8 4 3 1 1 8 15 15 15 13 13 12 11 10 10 10 10 11 11 10 9 9 8 7 5 5 6 6 6 5 6
11 7 6 8 8 12 14 10 2 1 2 4 6 5 4 3 2 2 9 16 17 16 14 13 12 11 11 10 10 10 10 10 9 8 8 7 7 6 6 6 6 5 5 5
8 7 7 6 8 3 5 9 5 4 6 6 4 5 3 3 1 2 10 17 17 16 14 13 11 11 10 9 9 9 9 9 8 7 6 5 6 6 5 5 6 6 6 7
6 7 7 8 10 12 9 8 7 6 5 4 4 3 2 4 6 3 8 15 17 16 15 13 11 11 10 10 9 9 8 8 7 6 6 6 5 5 5 5 6 6 7 8
6 5 7 6 1 9 10 11 10 8 7 6 3 3 3 4 4 2 7 12 14 14 13 12 12 11 11 10 9 8 8 7 6 5 5 5 5 4 4 5 6 7 8 8
7 7 10 7 5 7 10 13 15 9 5 8 7 3 4 2 3 3 8 12 13 14 13 12 12 11 11 10 9 8 7 6 5 5 4 4 4 4 5 6 6 7 8 9
5 6 8 11 8 13 14 16 18 16 11 11 11 7 5 4 4 5 8 11 13 13 13 13 12 12 11 10 9 8 7 6 5 4 3 3 4 5 6 6 7 7 8 9
6 6 6 4 5 14 16 20 21 23 20 15 13 15 12 6 5 6 8 10 12 12 12 13 13 12 11 10 9 7 6 5 4 3 2 3 4 5 6 6 7 8 8 9
8 5 5 4 4 9 10 18 23 24 24 22 17 14 6 5 6 7 9 10 11 11 12 12 13 13 12 11 9 7 6 5 3 2 2 3 4 5 6 7 8 9 9 10
8 6 6 4 5 6 10 17 22 22 23 22 23 18 8 9 10 9 8 9 8 9 11 12 13 12 11 10 8 7 6 5 3 1 2 4 5 6 7 8 9 9 10 11
9 6 2 4 7 9 4 1 13 19 20 18 13 5 13 12 10 8 6 7 7 7 9 11 11 11 10 9 8 6 5 4 2 1 3 4 6 7 8 9 9 10 10 11
4 6 4 3 6 7 3 4 7 11 13 13 12 10 13 15 12 7 4 4 5 5 7 9 11 11 11 9 8 6 5 3 0 2 4 5 6 8 9 10 11 11 11 12
4 4 4 4 5 6 1 5 5 6 7 8 12 16 16 14 10 7 5 6 6 7 8 10 11 11 10 8 7 5 4 2 1 3 5 6 7 8 10 11 11 11 12 12
7 5 7 7 6 6 3 6 8 7 2 11 13 14 13 7 5 9 8 7 8 9 10 11 11 10 8 8 6 4 2 1 2 4 6 7 8 9 10 11 11 12 12 13
12 9 9 8 8 6 6 8 7 3 8 12 13 11 10 11 10 9 8 8 9 9 10 10 9 8 7 6 5 3 2 1 3 5 6 8 9 8 8 10 11 12 12 13
8 6 5 6 3 3 1 1 2 8 12 11 10 10 12 10 8 7 7 7 8 9 9 8 9 8 6 5 3 2 1 2 4 6 7 8 9 9 9 10 11 11 11 11
3 1 4 3 2 1 2 5 7 10 11 11 11 10 9 8 8 7 6 7 7 8 8 8 8 7 6 5 3 1 1 3 5 7 8 8 9 9 9 8 8 9 10 10
6 7 4 4 4 5 4 6 9 10 12 12 9 7 7 9 7 6 6 6 7 7 7 7 7 6 6 5 3 1 2 4 6 8 8 8 8 9 9 9 9 10 10 11
7 8 8 7 11 8 10 10 10 12 10 10 9 7 5 5 6 5 5 6 7 8 8 7 7 6 5 4 2 2 3 5 6 7 7 7 7 8 9 10 10 11 13 17
Wind_Direction
194 215 207 198 201 206 202 208 211 217 209 230 249 264 276 281 261 248 223 192 168 129 101 87 77 73 72 65 63 63 69 78 92 99 100 95 86 80 72 63 59 56 53 48
195 221 214 199 198 207 204 203 207 215 204 249 268 275 276 272 258 241 210 186 165 143 124 104 92 80 75 74 72 71 70 72 75 81 83 88 90 78 74 66 56 50 48 43
206 208 209 200 194 198 203 204 202 197 188 225 278 273 250 216 201 205 198 177 163 152 136 122 106 93 85 77 76 78 78 79 83 90 97 101 98 90 72 59 52 45 43 39
212 216 201 194 193 194 200 203 201 204 240 235 263 289 257 227 213 191 177 171 163 152 139 130 121 109 96 88 85 83 82 81 81 86 88 88 83 77 64 53 52 50 42 34
202 217 203 192 191 192 193 180 199 224 252 267 242 261 269 223 237 204 180 172 165 158 148 138 128 118 107 99 93 89 86 81 79 81 84 85 83 81 72 59 47 39 37 32
202 219 212 197 188 182 143 144 135 160 224 248 231 233 269 215 216 162 173 173 168 161 151 141 134 128 116 109 100 97 93 87 83 82 79 79 80 75 66 51 36 25 23 20
209 217 201 183 163 171 175 157 151 179 205 229 169 226 255 1 98 184 180 176 171 164 159 154 149 140 130 119 110 107 102 96 90 85 81 80 78 72 57 39 27 18 12 11
195 185 182 179 174 171 186 185 187 189 193 176 175 232 252 62 77 237 192 175 169 169 166 162 154 145 136 127 122 116 108 102 96 89 85 80 72 62 51 37 24 17 7 3
193 172 150 159 164 160 170 190 227 318 153 208 200 234 269 144 149 172 184 175 175 174 170 163 155 150 141 134 127 122 115 108 102 97 91 80 68 58 49 34 25 16 6 350
188 148 143 130 120 73 163 152 156 209 200 211 207 228 212 161 333 143 180 180 177 173 169 163 158 151 141 131 126 123 117 111 105 97 86 76 66 54 41 30 22 9 357 348
202 146 141 160 178 164 149 158 177 197 249 238 200 155 87 309 314 268 190 183 175 173 170 164 156 148 140 135 134 130 125 120 111 98 88 76 63 46 34 25 12 358 348 342
200 155 143 166 156 188 184 180 181 192 199 228 246 128 95 316 318 254 179 175 171 170 166 159 153 148 147 145 143 139 135 124 110 95 82 69 54 34 21 16 3 349 342 336
180 163 141 152 169 183 203 196 200 216 211 207 220 184 110 56 69 119 158 165 166 164 159 157 157 157 156 153 150 146 137 124 110 95 77 62 40 19 10 3 352 341 334 327
209 203 203 194 183 177 193 198 203 207 217 216 224 222 170 153 128 133 153 164 164 163 163 164 164 164 161 157 153 147 135 125 113 95 70 43 19 6 357 348 338 331 325 320
221 224 212 209 166 179 193 197 202 213 223 230 228 230 230 198 161 149 155 159 163 165 169 172 172 168 163 158 153 145 137 130 121 105 69 24 359 352 343 336 327 320 315 313
212 213 176 169 176 196 212 210 208 216 224 233 242 240 231 154 145 149 156 161 168 172 176 176 174 171 166 160 154 149 143 135 133 114 38 4 346 340 333 326 318 312 310 311
190 185 184 170 150 170 231 221 214 218 224 228 235 237 163 166 164 155 151 156 163 170 174 176 176 172 163 157 153 151 144 141 135 76 9 349 338 329 322 316 310 310 312 313
181 169 132 138 160 219 221 232 217 221 226 227 236 226 177 159 133 118 121 134 138 155 166 170 168 161 152 145 145 142 141 138 120 21 347 340 329 320 314 310 311 313 313 312
169 146 140 184 215 252 234 178 182 201 223 216 209 161 140 130 124 110 85 90 111 137 151 155 154 148 143 144 147 148 146 140 126 338 335 330 319 312 311 313 315 315 312 311
89 118 158 202 223 238 183 136 166 171 219 183 175 155 149 157 164 143 122 113 112 118 129 134 136 137 140 143 149 155 154 177 307 329 321 313 309 308 310 311 311 311 310 308
151 163 202 217 240 265 107 143 164 196 205 144 154 148 151 154 113 116 125 117 118 122 128 133 136 138 138 141 149 157 175 247 323 311 305 306 309 308 306 305 307 307 307 306
174 178 194 199 225 238 133 157 188 102 116 132 133 130 121 112 111 119 123 125 129 130 136 140 138 133 134 141 152 169 220 302 307 305 306 307 306 304 301 304 306 308 309 310
195 194 190 197 209 58 112 174 102 139 132 128 125 125 126 125 128 128 131 135 141 144 146 147 142 137 139 146 164 210 248 310 310 307 304 302 301 300 301 304 308 311 313 312
184 115 142 150 152 108 115 120 122 128 121 120 123 126 129 129 135 136 140 149 154 157 157 154 151 151 156 161 181 226 309 314 303 298 299 300 302 305 308 307 307 311 313 312
155 160 151 142 139 130 142 142 128 114 112 113 108 108 123 130 138 148 156 165 166 164 163 163 165 167 164 167 182 224 295 290 287 291 295 300 302 305 307 307 308 309 303 305
179 178 180 186 179 169 165 152 140 129 127 129 122 110 102 124 140 148 157 163 166 165 163 164 166 162 158 167 196 237 258 267 280 290 299 304 305 307 308 310 307 298 296 302